Flag for U.S.A. Weather past 2 weeks in Hudson, Wisconsin, U.S.A.

Now
74 °F

Sunny.


Feels Like: 76 °F
Forecast: 57 / 85 °F
Wind: 6 mph from Southeast

Location: St. Paul Downtown Holman Field

Current Time: May 28, 2015 at 10:21:25 AM

Latest Report: May 28, 2015 at 9:53 AM


Visibility: 10 mi

Pressure: 30.05 "Hg

Humidity: 64%

Dew point: 61 °F

Location of HudsonLocation

Historic Weather in Hudson — Graph

°F

Hudson temperature yesterday

Maximum temperature yesterday: 83 °F (at 3:53 PM)
Minimum temperature yesterday: 54 °F (at 5:53 AM)
Average temperature yesterday: 68 °F

Past Weeks' High & Low Weather Summary

 TemperatureHumidityPressure
High83 °F (May 27, 3:53 PM)100% (May 14, 8:53 PM)30.43 "Hg (May 14, 8:53 PM)
Low35 °F (May 19, 5:53 AM)25% (May 21, 6:53 PM)29.54 "Hg (May 17, 5:53 PM)
Average58 °F71%30.00 "Hg
* Reported May 13 8:53 AM — May 28 8:53 AM, Hudson, Weather by CustomWeather, © 2015

Note: Actual official high and low records may vary slightly from our data, if they occured in-between our weather recording intervals... More about our weather records

Advertising

Hudson weather history for previous 24 hours

 ConditionsComfort  
Time TempWeatherWind HumidityBarometerVisibility
8:53 AM
Thu, May 28
69 °FSunny.6 mph70%30.06 "Hg10 mi
7:53 AM66 °FSunny.6 mph78%30.05 "Hg9 mi
6:53 AM62 °FSunny.6 mph86%30.05 "Hg7 mi
5:53 AM60 °FFog.No wind90%30.04 "Hg6 mi
4:53 AM60 °FClear.5 mph93%30.03 "Hg8 mi
3:53 AM60 °FClear.5 mph93%30.01 "Hg9 mi
2:53 AM60 °FClear.3 mph90%30.02 "Hg9 mi
1:53 AM59 °FClear.3 mph93%30.03 "Hg10 mi
12:53 AM60 °FClear.No wind93%30.03 "Hg9 mi
11:53 PM
Wed, May 27
62 °FClear.No wind90%30.02 "Hg10 mi
10:53 PM63 °FClear.No wind81%30.01 "Hg10 mi
9:53 PM67 °FClear.No wind71%29.99 "Hg10 mi
8:53 PM71 °FSunny.3 mph61%29.97 "Hg10 mi
7:53 PM79 °FSunny.7 mph41%29.95 "Hg10 mi
6:53 PM82 °FSunny.9 mph35%29.93 "Hg10 mi
5:53 PM83 °FPassing clouds.10 mph36%29.94 "Hg10 mi
4:53 PM83 °FSunny.9 mph37%29.94 "Hg10 mi
3:53 PM83 °FSunny.9 mph40%29.94 "Hg10 mi
2:53 PM80 °FSunny.10 mph47%29.94 "Hg10 mi
1:53 PM78 °FSunny.12 mph50%29.94 "Hg10 mi
12:53 PM76 °FSunny.12 mph52%29.93 "Hg10 mi
11:53 AM74 °FSunny.9 mph56%29.93 "Hg10 mi
10:53 AM71 °FSunny.12 mph63%29.91 "Hg10 mi
Weather by CustomWeather, © 2015

See weather overviewHow to use our weather pages